Zurück zum Katalog

STARLINK-3588

AktivKommunikationVLEO
NORAD 51869·PAYLOAD·🇺🇸 United States

Gestartet Mar 3, 2022 von Cape Canaveral Space Force Station

Loading…

Nächste Überflüge (nächste 24 Stunden)

TLE

AktuellSource: CelesTrak SupGP

Epoche: Sep 15, 2026, 01:21 UTC

1 51869C 22022T   26258.05673611 -.00020663  00000+0 -59120-3 0  2585
2 51869  53.1578 229.4322 0001335  93.6610 143.7127 15.35407388    11

Verfolge STARLINK-3588 in Echtzeit mit AllMySat

Download on the App Store